Content
SEND FEEDBACK

Daily
Averages
Monthly
Summary
Canada

WATERLOO WELLING, ONTARIO


Home > North America > Canada > Ontario
Elevation: 1031 feet     Latitude: 43 27N     Longitude: 080 23W

WEATHER
 
SELECT A DAY
Number of Records: 266,527;   Date Range: 1/1/95 - 11/25/14
 
SHARE

PRINT THIS DATA

[ ← Previous Day ]
WEATHER ALMANAC - FEBRUARY 17, 2013
[ Next Day → ]
[ °C ]   °F
Weather ElementAverageHighLow
Temperature7.8 °F12.2 °F (1:23 pm)-2.2 °F (5:00 am)
Dewpoint1.9 °F6.8 °F (11:00 am)-7.6 °F (5:00 am)
Humidity76.7 %92 % (2:00 am)47 % (1:00 pm)
Barometer30.13 in30.25 in (10:19 pm)30.01 in (1:00 am)
Wind Speed10.5 mph20.7 mph (3:22 pm)
Wind Gust28.8 mph (2:00 pm)
Weather ElementAverage
Visibility8.5 mi
Wind DirectionWNW (280.4 °)

Weather ElementTotal
Precipitation---
Heating Degree Days60 (Base 65)
Averaged from 46 records on February 17, 2013
WEATHER CONDITIONS BREAKOUT
WIND DIRECTION BREAKOUT
WEATHER BY HOUR - FEBRUARY 17, 2013
[ °C ]   °F
Local TimeTemperatureDewpointHumidityBarometerVisibilityWind DirectionWind SpeedGust SpeedPrecipitationEventsConditions
1:00 AM5.0 °F2.0 °F80 %30.01 in10.0 miNW (310°)5.8 mph
1:00 AM5.0 °F1.4 °F85 %30.01 in9.0 miNW (310°)5.8 mphClear
2:00 AM3.2 °F1.4 °F92 %30.01 in9.0 miWNW (300°)3.5 mphClear
3:00 AM3.2 °F1.4 °F92 %30.02 in9.0 miNNW (330°)4.6 mphClear
5:00 AM-2.2 °F-7.6 °F78 %30.05 in9.0 miNW (320°)2.3 mphClear
6:00 AM1.4 °F-2.2 °F85 %30.06 in9.0 miNW (320°)4.6 mphClear
7:00 AM-1.0 °F-5.0 °F77 %30.08 in10.0 miNW (320°)2.3 mph
7:00 AM-0.4 °F-4.0 °F85 %30.08 in9.0 miNW (310°)3.5 mphClear
8:00 AM-2.2 °F-5.8 °F85 %30.09 in9.0 miNW (310°)5.8 mphClear
9:00 AM3.2 °F-0.4 °F85 %30.09 in9.0 miNW (310°)5.8 mphClear
9:35 AM5.0 °F1.4 °F85 %30.09 in9.0 miNorth (350°)9.2 mphSnowLight Snow
9:47 AM5.0 °F1.4 °F85 %30.10 in9.0 miNNW (330°)6.9 mphClear
10:00 AM5.0 °F3.2 °F92 %30.10 in9.0 miNNW (330°)8.1 mphClear
10:17 AM6.8 °F3.2 °F85 %30.10 in9.0 miNNW (340°)9.2 mphSnowLight Snow
10:43 AM8.6 °F5.0 °F85 %30.11 in9.0 miNNW (330°)12.7 mphClear
11:00 AM8.6 °F6.8 °F92 %30.11 in9.0 miNNW (330°)16.1 mphClear
12:00 PM8.6 °F6.8 °F92 %30.12 in9.0 miNW (310°)12.7 mph20.7 mphClear
12:23 PM10.4 °F5.0 °F79 %30.12 in9.0 miWNW (300°)16.1 mphSnowLight Snow
12:47 PM10.4 °F1.4 °F67 %30.11 in9.0 miNW (320°)15.0 mph24.2 mphPartly Cloudy
1:00 PM11.0 °F0.0 °F47 %30.12 in10.0 miNW (310°)13.8 mph
1:00 PM10.4 °F-0.4 °F62 %30.11 in9.0 miNW (320°)17.3 mphClear
1:23 PM12.2 °F-0.4 °F57 %30.11 in9.0 miNW (320°)16.1 mph25.3 mphSnowLight Snow
2:00 PM12.2 °F-0.4 °F57 %30.11 in9.0 miNW (320°)16.1 mph28.8 mphSnowLight Snow
2:39 PM12.2 °F1.4 °F62 %30.11 in9.0 miNW (320°)13.8 mph19.6 mphClear
3:00 PM12.2 °F1.4 °F62 %30.12 in9.0 miNW (310°)12.7 mph20.7 mphClear
3:22 PM12.2 °F1.4 °F62 %30.11 in9.0 miWNW (300°)20.7 mphSnowLight Snow
3:52 PM12.2 °F3.2 °F67 %30.11 in4.0 miNW (310°)19.6 mph27.6 mphSnowLight Snow
4:00 PM12.2 °F3.2 °F67 %30.12 in2.2 miWNW (300°)19.6 mph26.5 mphSnowLight Snow
4:15 PM12.2 °F3.2 °F67 %30.13 in3.0 miWNW (300°)19.6 mph28.8 mphSnowLight Snow
4:32 PM12.2 °F3.2 °F67 %30.13 in6.0 miWNW (300°)19.6 mph27.6 mphSnowLight Snow
4:34 PM12.2 °F3.2 °F67 %30.13 in5.0 miWNW (300°)17.3 mph27.6 mphSnowLight Snow
4:35 PM12.2 °F3.2 °F67 %30.13 in6.0 miWNW (300°)18.4 mphSnowLight Snow
4:58 PM12.2 °F3.2 °F67 %30.14 in9.0 miWNW (290°)16.1 mph23.0 mphClear
5:00 PM12.2 °F3.2 °F67 %30.14 in9.0 miWNW (290°)17.3 mphClear
5:01 PM12.2 °F3.2 °F67 %30.14 in9.0 miWNW (290°)17.3 mphSnowLight Snow
5:14 PM12.2 °F3.2 °F67 %30.14 in9.0 miWNW (300°)12.7 mphClear
6:00 PM10.4 °F5.0 °F79 %30.16 in9.0 miWNW (300°)9.2 mphClear
7:00 PM9.0 °F3.0 °F67 %30.19 in10.0 miWNW (300°)8.1 mph
7:00 PM8.6 °F3.2 °F79 %30.18 in9.0 miWNW (300°)8.1 mphClear
8:00 PM6.8 °F3.2 °F85 %30.20 in9.0 miWNW (290°)4.6 mphPartly Cloudy
9:00 PM3.2 °F-0.4 °F85 %30.22 in9.0 miCalmOvercast
10:00 PM6.8 °F3.2 °F85 %30.24 in9.0 miEast (80°)3.5 mphOvercast
10:19 PM6.8 °F3.2 °F85 %30.25 in9.0 miEast (80°)2.3 mphSnowLight Snow
10:48 PM6.8 °F5.0 °F92 %30.25 in9.0 miEast (100°)3.5 mphOvercast
10:50 PM6.8 °F5.0 °F92 %30.25 in9.0 miEast (90°)3.5 mphSnowLight Snow
11:00 PM6.8 °F5.0 °F92 %30.25 in9.0 miEast (100°)3.5 mphSnowLight Snow
Hourly data recorded from CYKF, located miles away from Waterloo Welling, Ontario







STORIES FROM OUR PARTNERS